QPF
0.01 0.01 0.01 0.01 0.01 0.00 0.00 0.00 0.00 0.00 0.00 0.00 0.00 0.00 0.00 0.00 0.00 0.00 0.00 0.00 0.00 0.00 0.00 0.00 0.00 0.00 0.00 0.00 0.00 0.00 0.00 0.01 0.01 0.01 0.01 0.02 0.01 0.01 0.01 0.02 0.01 0.01 0.02 0.02
0.00 0.00 0.00 0.00 0.00 0.00 0.00 0.00 0.00 0.00 0.00 0.00 0.00 0.00 0.00 0.00 0.00 0.00 0.00 0.00 0.00 0.00 0.00 0.00 0.00 0.00 0.00 0.00 0.00 0.00 0.00 0.00 0.00 0.01 0.01 0.01 0.01 0.01 0.01 0.02 0.02 0.02 0.02 0.02
0.01 0.01 0.00 0.00 0.00 0.00 0.00 0.00 0.00 0.00 0.00 0.00 0.00 0.00 0.00 0.00 0.00 0.00 0.00 0.00 0.00 0.00 0.00 0.00 0.00 0.00 0.00 0.00 0.00 0.00 0.00 0.00 0.00 0.00 0.00 0.01 0.01 0.01 0.01 0.02 0.02 0.02 0.03 0.03
0.00 0.00 0.00 0.00 0.00 0.00 0.00 0.00 0.00 0.00 0.00 0.00 0.00 0.00 0.00 0.00 0.00 0.00 0.00 0.00 0.00 0.00 0.00 0.00 0.00 0.00 0.00 0.00 0.00 0.00 0.00 0.00 0.00 0.00 0.00 0.00 0.01 0.01 0.02 0.02 0.02 0.03 0.03 0.03
0.00 0.00 0.00 0.01 0.00 0.00 0.00 0.00 0.00 0.00 0.00 0.00 0.00 0.00 0.00 0.00 0.00 0.00 0.00 0.00 0.00 0.00 0.00 0.00 0.00 0.00 0.00 0.00 0.00 0.00 0.00 0.00 0.00 0.00 0.00 0.01 0.01 0.01 0.02 0.02 0.02 0.03 0.03 0.03
0.00 0.00 0.02 0.01 0.01 0.00 0.00 0.00 0.00 0.00 0.00 0.00 0.00 0.00 0.00 0.00 0.00 0.00 0.00 0.00 0.00 0.00 0.00 0.00 0.00 0.00 0.00 0.00 0.00 0.00 0.00 0.00 0.00 0.00 0.01 0.01 0.01 0.02 0.02 0.02 0.02 0.02 0.02 0.03
0.00 0.00 0.00 0.01 0.01 0.00 0.00 0.00 0.00 0.00 0.00 0.00 0.00 0.00 0.00 0.00 0.00 0.00 0.00 0.00 0.00 0.00 0.00 0.00 0.00 0.00 0.00 0.00 0.00 0.00 0.00 0.00 0.00 0.00 0.01 0.00 0.01 0.02 0.02 0.02 0.02 0.03 0.02 0.03
0.01 0.01 0.01 0.02 0.01 0.01 0.01 0.00 0.00 0.00 0.00 0.00 0.00 0.00 0.00 0.00 0.00 0.00 0.00 0.00 0.00 0.00 0.00 0.00 0.00 0.00 0.00 0.00 0.00 0.00 0.00 0.00 0.01 0.01 0.00 0.00 0.01 0.02 0.02 0.02 0.02 0.02 0.02 0.03
0.04 0.05 0.02 0.02 0.02 0.02 0.01 0.01 0.01 0.00 0.00 0.00 0.00 0.00 0.00 0.00 0.00 0.00 0.00 0.00 0.00 0.00 0.00 0.00 0.00 0.00 0.00 0.00 0.00 0.00 0.00 0.01 0.01 0.01 0.01 0.00 0.01 0.01 0.02 0.02 0.01 0.01 0.01 0.01
0.06 0.07 0.03 0.01 0.01 0.01 0.01 0.01 0.00 0.00 0.00 0.00 0.00 0.00 0.00 0.00 0.00 0.00 0.00 0.00 0.00 0.00 0.00 0.00 0.00 0.00 0.00 0.00 0.00 0.00 0.01 0.01 0.01 0.01 0.00 0.00 0.01 0.00 0.00 0.01 0.01 0.01 0.01 0.01
0.02 0.02 0.02 0.01 0.00 0.01 0.01 0.02 0.01 0.00 0.00 0.00 0.00 0.00 0.00 0.00 0.00 0.00 0.00 0.00 0.00 0.00 0.00 0.00 0.00 0.00 0.00 0.00 0.00 0.00 0.00 0.00 0.00 0.00 0.00 0.00 0.00 0.00 0.00 0.00 0.00 0.00 0.00 0.01
0.01 0.00 0.01 0.00 0.01 0.01 0.00 0.00 0.00 0.00 0.00 0.00 0.00 0.00 0.00 0.00 0.00 0.00 0.00 0.00 0.00 0.00 0.00 0.00 0.00 0.00 0.00 0.00 0.00 0.00 0.00 0.00 0.00 0.00 0.00 0.00 0.00 0.00 0.00 0.00 0.00 0.00 0.00 0.00
0.00 0.00 0.01 0.00 0.00 0.01 0.01 0.01 0.00 0.00 0.00 0.00 0.00 0.00 0.00 0.00 0.00 0.00 0.00 0.00 0.00 0.00 0.00 0.00 0.00 0.00 0.00 0.00 0.00 0.00 0.00 0.00 0.00 0.00 0.00 0.00 0.00 0.00 0.01 0.01 0.01 0.00 0.00 0.00
0.01 0.00 0.01 0.01 0.00 0.00 0.00 0.00 0.00 0.00 0.00 0.00 0.00 0.00 0.00 0.00 0.00 0.00 0.00 0.00 0.00 0.00 0.00 0.00 0.00 0.00 0.00 0.00 0.00 0.00 0.00 0.00 0.00 0.00 0.00 0.00 0.00 0.00 0.01 0.01 0.02 0.02 0.01 0.01
0.00 0.00 0.00 0.00 0.00 0.00 0.00 0.00 0.00 0.00 0.00 0.00 0.00 0.00 0.00 0.00 0.00 0.00 0.00 0.00 0.00 0.00 0.00 0.00 0.00 0.00 0.00 0.00 0.00 0.00 0.00 0.00 0.00 0.00 0.00 0.00 0.01 0.00 0.00 0.00 0.01 0.01 0.02 0.02
0.00 0.00 0.00 0.00 0.00 0.00 0.00 0.00 0.00 0.00 0.00 0.00 0.00 0.00 0.00 0.00 0.00 0.00 0.00 0.00 0.00 0.00 0.00 0.00 0.00 0.00 0.00 0.00 0.00 0.00 0.00 0.00 0.00 0.00 0.00 0.00 0.00 0.00 0.00 0.00 0.01 0.01 0.02 0.03
0.00 0.00 0.00 0.00 0.00 0.00 0.00 0.00 0.00 0.00 0.00 0.00 0.00 0.00 0.00 0.00 0.00 0.00 0.00 0.00 0.00 0.00 0.00 0.00 0.00 0.00 0.00 0.00 0.00 0.00 0.00 0.00 0.00 0.00 0.01 0.01 0.00 0.00 0.00 0.00 0.01 0.01 0.02 0.02
0.00 0.00 0.00 0.00 0.00 0.00 0.00 0.00 0.00 0.00 0.00 0.00 0.00 0.00 0.00 0.00 0.00 0.00 0.00 0.00 0.00 0.00 0.00 0.00 0.00 0.00 0.00 0.00 0.01 0.01 0.01 0.00 0.00 0.00 0.00 0.00 0.00 0.00 0.00 0.01 0.01 0.01 0.01 0.01
0.00 0.00 0.00 0.00 0.00 0.00 0.00 0.00 0.01 0.01 0.01 0.01 0.00 0.00 0.00 0.00 0.00 0.00 0.00 0.00 0.01 0.01 0.00 0.00 0.01 0.00 0.00 0.00 0.00 0.00 0.00 0.00 0.00 0.00 0.00 0.00 0.00 0.00 0.01 0.01 0.01 0.01 0.01 0.01
0.00 0.00 0.00 0.00 0.00 0.01 0.01 0.01 0.01 0.01 0.01 0.00 0.00 0.00 0.00 0.00 0.00 0.00 0.00 0.00 0.00 0.00 0.00 0.00 0.00 0.00 0.00 0.01 0.01 0.00 0.00 0.00 0.00 0.00 0.00 0.00 0.00 0.01 0.01 0.01 0.01 0.01 0.01 0.01
0.00 0.00 0.00 0.00 0.00 0.00 0.00 0.00 0.00 0.00 0.00 0.00 0.00 0.00 0.00 0.00 0.00 0.00 0.00 0.00 0.00 0.00 0.00 0.00 0.00 0.00 0.00 0.00 0.01 0.00 0.00 0.00 0.00 0.01 0.01 0.01 0.01 0.01 0.01 0.01 0.00 0.01 0.01 0.01
0.00 0.00 0.00 0.00 0.00 0.00 0.00 0.00 0.00 0.00 0.00 0.00 0.00 0.00 0.00 0.00 0.00 0.00 0.00 0.00 0.00 0.00 0.00 0.00 0.00 0.00 0.00 0.00 0.00 0.00 0.01 0.01 0.01 0.01 0.02 0.02 0.02 0.02 0.02 0.01 0.01 0.01 0.02 0.02
0.00 0.00 0.00 0.00 0.00 0.01 0.00 0.00 0.00 0.00 0.00 0.00 0.00 0.00 0.00 0.00 0.00 0.00 0.00 0.00 0.00 0.01 0.00 0.00 0.00 0.00 0.00 0.00 0.00 0.00 0.01 0.01 0.01 0.01 0.01 0.01 0.02 0.02 0.02 0.01 0.02 0.02 0.03 0.03
0.00 0.00 0.00 0.00 0.00 0.00 0.00 0.00 0.00 0.00 0.00 0.00 0.00 0.00 0.00 0.00 0.01 0.00 0.00 0.00 0.00 0.00 0.00 0.00 0.00 0.00 0.00 0.00 0.00 0.01 0.01 0.01 0.01 0.01 0.01 0.01 0.02 0.03 0.03 0.02 0.02 0.02 0.02 0.02
0.00 0.00 0.00 0.00 0.00 0.00 0.00 0.00 0.00 0.00 0.00 0.00 0.00 0.00 0.00 0.00 0.00 0.00 0.00 0.00 0.00 0.00 0.00 0.00 0.00 0.00 0.00 0.00 0.01 0.01 0.01 0.02 0.02 0.01 0.01 0.02 0.02 0.03 0.02 0.02 0.02 0.02 0.02 0.02
0.00 0.00 0.00 0.00 0.00 0.00 0.00 0.00 0.00 0.00 0.00 0.00 0.00 0.00 0.00 0.00 0.00 0.00 0.00 0.00 0.00 0.00 0.00 0.00 0.00 0.00 0.00 0.00 0.01 0.01 0.01 0.01 0.01 0.01 0.01 0.01 0.02 0.03 0.04 0.03 0.03 0.03 0.03 0.02
0.00 0.00 0.00 0.00 0.00 0.00 0.00 0.00 0.00 0.00 0.00 0.00 0.00 0.00 0.00 0.00 0.00 0.00 0.00 0.00 0.00 0.00 0.00 0.00 0.00 0.00 0.00 0.00 0.00 0.01 0.01 0.02 0.02 0.02 0.02 0.03 0.04 0.06 0.06 0.04 0.03 0.02 0.02 0.02
MSLP
1010.74 1010.78 1010.66 1010.41 1010.10 1009.78 1009.50 1009.29 1009.17 1009.16 1009.25 1009.43 1009.70 1010.03 1010.41 1010.82 1011.25 1011.68 1012.10 1012.50 1012.86 1013.20 1013.51 1013.80 1014.06 1014.32 1014.56 1014.78 1014.98 1015.15 1015.27 1015.33 1015.33 1015.26 1015.13 1014.96 1014.76 1014.54 1014.32 1014.12 1013.93 1013.75 1013.60 1013.44
1010.82 1010.87 1010.71 1010.37 1009.93 1009.47 1009.05 1008.73 1008.56 1008.55 1008.69 1008.98 1009.38 1009.84 1010.34 1010.83 1011.30 1011.73 1012.11 1012.45 1012.75 1013.04 1013.32 1013.60 1013.89 1014.19 1014.48 1014.76 1014.99 1015.17 1015.28 1015.31 1015.27 1015.15 1014.98 1014.77 1014.54 1014.32 1014.11 1013.92 1013.75 1013.60 1013.45 1013.30
1010.79 1010.86 1010.68 1010.29 1009.77 1009.21 1008.70 1008.31 1008.09 1008.08 1008.26 1008.62 1009.10 1009.66 1010.24 1010.79 1011.28 1011.70 1012.04 1012.33 1012.58 1012.83 1013.09 1013.37 1013.68 1014.02 1014.35 1014.67 1014.93 1015.12 1015.22 1015.22 1015.14 1014.97 1014.76 1014.51 1014.26 1014.03 1013.83 1013.65 1013.50 1013.37 1013.23 1013.09
1010.66 1010.73 1010.53 1010.11 1009.55 1008.93 1008.37 1007.93 1007.70 1007.68 1007.89 1008.30 1008.84 1009.46 1010.09 1010.68 1011.19 1011.60 1011.92 1012.18 1012.39 1012.61 1012.85 1013.14 1013.46 1013.82 1014.19 1014.53 1014.81 1015.00 1015.09 1015.06 1014.94 1014.73 1014.47 1014.20 1013.93 1013.68 1013.48 1013.31 1013.18 1013.06 1012.94 1012.82
1010.42 1010.47 1010.24 1009.80 1009.21 1008.58 1007.99 1007.54 1007.30 1007.30 1007.53 1007.97 1008.57 1009.23 1009.91 1010.53 1011.05 1011.47 1011.79 1012.03 1012.23 1012.42 1012.65 1012.93 1013.27 1013.63 1014.01 1014.36 1014.64 1014.82 1014.89 1014.84 1014.68 1014.44 1014.15 1013.85 1013.56 1013.31 1013.10 1012.94 1012.82 1012.71 1012.60 1012.48
1010.08 1010.07 1009.81 1009.35 1008.75 1008.11 1007.53 1007.10 1006.87 1006.89 1007.16 1007.64 1008.27 1008.98 1009.69 1010.35 1010.91 1011.34 1011.67 1011.91 1012.10 1012.29 1012.51 1012.78 1013.10 1013.46 1013.83 1014.17 1014.44 1014.61 1014.65 1014.58 1014.40 1014.14 1013.83 1013.51 1013.21 1012.95 1012.74 1012.58 1012.46 1012.36 1012.26 1012.15
1009.61 1009.52 1009.22 1008.74 1008.14 1007.53 1006.98 1006.58 1006.39 1006.45 1006.76 1007.28 1007.95 1008.70 1009.46 1010.16 1010.75 1011.22 1011.56 1011.82 1012.01 1012.20 1012.41 1012.66 1012.96 1013.30 1013.65 1013.97 1014.22 1014.37 1014.40 1014.31 1014.12 1013.85 1013.53 1013.20 1012.90 1012.63 1012.43 1012.27 1012.15 1012.06 1011.96 1011.86
1008.99 1008.82 1008.48 1007.99 1007.42 1006.84 1006.35 1006.01 1005.88 1005.99 1006.35 1006.91 1007.63 1008.42 1009.22 1009.95 1010.58 1011.08 1011.46 1011.73 1011.94 1012.12 1012.32 1012.55 1012.83 1013.14 1013.46 1013.75 1013.98 1014.12 1014.14 1014.05 1013.86 1013.59 1013.27 1012.95 1012.64 1012.38 1012.18 1012.02 1011.91 1011.82 1011.74 1011.65
1008.23 1007.99 1007.62 1007.14 1006.61 1006.09 1005.67 1005.41 1005.35 1005.53 1005.94 1006.55 1007.30 1008.13 1008.95 1009.72 1010.38 1010.91 1011.31 1011.61 1011.82 1012.01 1012.20 1012.41 1012.67 1012.95 1013.24 1013.51 1013.72 1013.85 1013.87 1013.79 1013.60 1013.34 1013.04 1012.73 1012.43 1012.18 1011.98 1011.83 1011.73 1011.66 1011.59 1011.52
1007.34 1007.06 1006.68 1006.23 1005.76 1005.33 1004.99 1004.82 1004.84 1005.09 1005.55 1006.20 1006.98 1007.82 1008.67 1009.45 1010.13 1010.68 1011.11 1011.41 1011.64 1011.83 1012.01 1012.21 1012.44 1012.70 1012.97 1013.22 1013.42 1013.54 1013.57 1013.50 1013.33 1013.09 1012.80 1012.51 1012.22 1011.98 1011.79 1011.66 1011.58 1011.52 1011.49 1011.45
1006.39 1006.09 1005.73 1005.33 1004.94 1004.60 1004.36 1004.28 1004.39 1004.69 1005.20 1005.87 1006.66 1007.51 1008.35 1009.14 1009.82 1010.38 1010.81 1011.13 1011.37 1011.56 1011.74 1011.93 1012.14 1012.38 1012.63 1012.87 1013.06 1013.19 1013.22 1013.16 1013.01 1012.79 1012.52 1012.24 1011.97 1011.74 1011.57 1011.45 1011.39 1011.37 1011.37 1011.37
1005.48 1005.19 1004.86 1004.53 1004.22 1003.97 1003.83 1003.83 1004.01 1004.36 1004.89 1005.57 1006.36 1007.19 1008.01 1008.78 1009.45 1010.00 1010.44 1010.76 1011.00 1011.20 1011.37 1011.56 1011.76 1011.99 1012.22 1012.45 1012.63 1012.76 1012.80 1012.75 1012.62 1012.41 1012.16 1011.89 1011.63 1011.41 1011.25 1011.16 1011.12 1011.14 1011.18 1011.23
1004.70 1004.43 1004.15 1003.89 1003.66 1003.50 1003.44 1003.52 1003.75 1004.14 1004.67 1005.34 1006.10 1006.89 1007.68 1008.41 1009.06 1009.59 1010.02 1010.34 1010.58 1010.77 1010.95 1011.12 1011.32 1011.53 1011.75 1011.96 1012.14 1012.25 1012.29 1012.25 1012.13 1011.93 1011.69 1011.43 1011.18 1010.97 1010.83 1010.75 1010.74 1010.79 1010.87 1010.96
1004.15 1003.91 1003.69 1003.49 1003.33 1003.25 1003.26 1003.39 1003.65 1004.04 1004.57 1005.21 1005.92 1006.66 1007.39 1008.08 1008.69 1009.19 1009.60 1009.91 1010.14 1010.32 1010.49 1010.65 1010.83 1011.02 1011.22 1011.41 1011.56 1011.67 1011.70 1011.66 1011.54 1011.35 1011.12 1010.87 1010.63 1010.43 1010.30 1010.23 1010.24 1010.31 1010.42 1010.55
1003.90 1003.70 1003.52 1003.38 1003.28 1003.25 1003.31 1003.46 1003.74 1004.12 1004.62 1005.21 1005.86 1006.54 1007.21 1007.84 1008.39 1008.86 1009.23 1009.51 1009.72 1009.89 1010.03 1010.16 1010.31 1010.47 1010.63 1010.79 1010.92 1011.01 1011.03 1010.98 1010.86 1010.68 1010.46 1010.23 1010.00 1009.82 1009.69 1009.64 1009.66 1009.73 1009.85 1009.99
1003.96 1003.80 1003.67 1003.57 1003.52 1003.53 1003.61 1003.77 1004.04 1004.40 1004.85 1005.38 1005.96 1006.57 1007.17 1007.72 1008.21 1008.62 1008.95 1009.19 1009.36 1009.48 1009.58 1009.67 1009.77 1009.88 1010.00 1010.11 1010.21 1010.27 1010.28 1010.23 1010.12 1009.96 1009.76 1009.55 1009.35 1009.18 1009.07 1009.01 1009.03 1009.10 1009.20 1009.32
1004.32 1004.20 1004.11 1004.05 1004.03 1004.06 1004.15 1004.31 1004.55 1004.87 1005.26 1005.73 1006.24 1006.76 1007.28 1007.76 1008.17 1008.51 1008.77 1008.95 1009.06 1009.13 1009.16 1009.19 1009.22 1009.26 1009.32 1009.38 1009.44 1009.47 1009.48 1009.43 1009.34 1009.21 1009.05 1008.87 1008.70 1008.56 1008.46 1008.41 1008.41 1008.46 1008.54 1008.62
1004.90 1004.84 1004.79 1004.76 1004.76 1004.80 1004.88 1005.02 1005.23 1005.50 1005.84 1006.23 1006.66 1007.10 1007.53 1007.92 1008.25 1008.51 1008.69 1008.79 1008.82 1008.81 1008.76 1008.71 1008.66 1008.62 1008.61 1008.61 1008.63 1008.64 1008.63 1008.60 1008.54 1008.45 1008.34 1008.22 1008.10 1007.99 1007.91 1007.87 1007.86 1007.88 1007.91 1007.94
1005.62 1005.61 1005.60 1005.60 1005.61 1005.65 1005.73 1005.84 1006.01 1006.24 1006.51 1006.83 1007.19 1007.54 1007.88 1008.18 1008.43 1008.59 1008.68 1008.69 1008.63 1008.52 1008.38 1008.23 1008.09 1007.97 1007.88 1007.83 1007.80 1007.79 1007.79 1007.78 1007.76 1007.73 1007.68 1007.62 1007.55 1007.49 1007.45 1007.41 1007.40 1007.39 1007.38 1007.36
1006.37 1006.40 1006.43 1006.45 1006.48 1006.52 1006.58 1006.67 1006.80 1006.98 1007.20 1007.45 1007.73 1008.00 1008.26 1008.47 1008.62 1008.70 1008.70 1008.61 1008.46 1008.26 1008.02 1007.78 1007.55 1007.35 1007.19 1007.08 1007.01 1006.98 1006.98 1007.00 1007.02 1007.05 1007.06 1007.07 1007.07 1007.06 1007.06 1007.04 1007.03 1007.01 1006.97 1006.91
1007.06 1007.13 1007.19 1007.23 1007.26 1007.29 1007.33 1007.40 1007.49 1007.63 1007.79 1007.99 1008.20 1008.40 1008.59 1008.72 1008.79 1008.79 1008.70 1008.54 1008.30 1008.01 1007.70 1007.37 1007.06 1006.79 1006.57 1006.41 1006.31 1006.26 1006.27 1006.30 1006.36 1006.43 1006.51 1006.58 1006.64 1006.69 1006.72 1006.74 1006.74 1006.72 1006.68 1006.61
1007.62 1007.72 1007.78 1007.83 1007.86 1007.88 1007.90 1007.95 1008.01 1008.11 1008.24 1008.38 1008.54 1008.69 1008.81 1008.88 1008.89 1008.82 1008.67 1008.45 1008.15 1007.80 1007.43 1007.04 1006.68 1006.35 1006.09 1005.88 1005.75 1005.68 1005.68 1005.72 1005.80 1005.90 1006.02 1006.14 1006.25 1006.34 1006.42 1006.48 1006.51 1006.52 1006.49 1006.44
1008.01 1008.11 1008.18 1008.21 1008.23 1008.24 1008.25 1008.27 1008.32 1008.39 1008.48 1008.59 1008.71 1008.81 1008.89 1008.92 1008.89 1008.78 1008.60 1008.34 1008.01 1007.64 1007.23 1006.82 1006.42 1006.07 1005.76 1005.53 1005.37 1005.28 1005.25 1005.28 1005.36 1005.47 1005.61 1005.75 1005.89 1006.02 1006.14 1006.24 1006.31 1006.36 1006.38 1006.37
1008.22 1008.30 1008.35 1008.37 1008.38 1008.38 1008.37 1008.39 1008.42 1008.47 1008.54 1008.63 1008.72 1008.79 1008.84 1008.85 1008.79 1008.67 1008.48 1008.21 1007.88 1007.51 1007.11 1006.70 1006.30 1005.93 1005.62 1005.36 1005.18 1005.06 1005.00 1005.01 1005.07 1005.16 1005.28 1005.43 1005.58 1005.73 1005.88 1006.02 1006.14 1006.24 1006.32 1006.38
1008.25 1008.30 1008.33 1008.34 1008.33 1008.32 1008.32 1008.33 1008.36 1008.40 1008.46 1008.54 1008.61 1008.67 1008.70 1008.69 1008.63 1008.51 1008.32 1008.07 1007.77 1007.42 1007.05 1006.66 1006.28 1005.93 1005.62 1005.36 1005.15 1005.01 1004.92 1004.89 1004.91 1004.97 1005.06 1005.19 1005.33 1005.49 1005.66 1005.83 1005.99 1006.16 1006.31 1006.45
1008.13 1008.15 1008.17 1008.17 1008.16 1008.16 1008.17 1008.19 1008.22 1008.27 1008.33 1008.39 1008.46 1008.50 1008.52 1008.50 1008.43 1008.32 1008.14 1007.92 1007.65 1007.34 1007.01 1006.67 1006.33 1006.01 1005.72 1005.47 1005.26 1005.10 1004.98 1004.91 1004.89 1004.91 1004.97 1005.06 1005.18 1005.34 1005.51 1005.71 1005.91 1006.13 1006.35 1006.57
1007.90 1007.91 1007.92 1007.94 1007.95 1007.98 1008.01 1008.06 1008.11 1008.17 1008.23 1008.29 1008.33 1008.35 1008.35 1008.31 1008.23 1008.11 1007.94 1007.73 1007.50 1007.23 1006.95 1006.66 1006.37 1006.10 1005.85 1005.62 1005.43 1005.26 1005.14 1005.05 1004.99 1004.98 1005.01 1005.07 1005.18 1005.32 1005.50 1005.70 1005.94 1006.20 1006.48 1006.77
Thickness
5774 5778 5775 5774 5778 5783 5780 5776 5766 5765 5765 5765 5770 5769 5767 5762 5755 5748 5741 5735 5728 5720 5714 5708 5701 5696 5690 5684 5679 5673 5667 5662 5657 5653 5649 5645 5640 5636 5633 5629 5626 5622 5618 5615
5773 5784 5785 5783 5786 5787 5785 5785 5781 5777 5770 5778 5777 5774 5766 5760 5753 5745 5740 5735 5729 5721 5714 5707 5700 5694 5688 5682 5676 5671 5665 5660 5656 5651 5646 5642 5638 5634 5630 5625 5621 5617 5613 5610
5758 5776 5778 5769 5787 5788 5787 5789 5783 5771 5771 5777 5771 5767 5762 5758 5753 5746 5741 5736 5728 5721 5714 5706 5700 5693 5685 5680 5675 5669 5664 5659 5654 5649 5645 5640 5636 5631 5626 5622 5618 5613 5610 5606
5759 5757 5739 5774 5804 5799 5787 5787 5790 5783 5780 5778 5772 5769 5767 5762 5754 5747 5742 5735 5728 5721 5714 5708 5701 5693 5686 5680 5674 5668 5663 5658 5653 5648 5643 5639 5634 5628 5624 5620 5615 5611 5607 5604
5756 5749 5755 5777 5791 5794 5782 5778 5791 5783 5780 5778 5776 5768 5761 5762 5756 5748 5742 5735 5728 5722 5715 5707 5700 5693 5685 5678 5673 5668 5662 5657 5652 5647 5642 5637 5632 5626 5622 5618 5613 5610 5606 5602
5757 5743 5733 5759 5787 5800 5786 5764 5788 5785 5777 5775 5768 5749 5750 5758 5753 5746 5741 5733 5727 5721 5714 5704 5697 5691 5683 5677 5672 5666 5661 5656 5651 5646 5640 5635 5631 5626 5621 5616 5612 5609 5605 5601
5753 5749 5759 5779 5792 5791 5758 5756 5783 5784 5778 5773 5764 5756 5753 5754 5748 5742 5736 5730 5724 5718 5710 5703 5696 5688 5680 5675 5670 5666 5662 5656 5650 5645 5640 5636 5631 5626 5621 5616 5611 5607 5603 5599
5751 5743 5749 5782 5783 5770 5763 5780 5782 5781 5778 5771 5763 5758 5754 5749 5742 5737 5732 5727 5721 5713 5706 5701 5694 5686 5679 5673 5670 5665 5660 5654 5649 5644 5640 5637 5630 5625 5621 5615 5610 5606 5602 5598
5747 5745 5763 5778 5777 5779 5782 5778 5778 5778 5777 5770 5762 5755 5750 5744 5738 5734 5729 5724 5718 5711 5704 5698 5692 5685 5678 5674 5669 5663 5658 5652 5647 5643 5639 5635 5629 5625 5621 5616 5610 5606 5601 5596
5749 5753 5763 5775 5776 5779 5782 5780 5780 5779 5775 5770 5760 5754 5747 5740 5735 5730 5725 5719 5714 5708 5701 5695 5691 5685 5679 5674 5668 5662 5655 5650 5646 5642 5638 5635 5630 5625 5620 5614 5608 5603 5598 5593
5751 5762 5767 5770 5776 5778 5779 5778 5776 5776 5773 5767 5759 5752 5745 5738 5732 5727 5722 5717 5711 5704 5698 5693 5689 5683 5678 5673 5667 5660 5654 5649 5645 5642 5639 5634 5630 5625 5620 5614 5608 5600 5595 5590
5748 5764 5764 5764 5775 5778 5773 5770 5770 5768 5765 5763 5758 5750 5744 5737 5730 5724 5718 5713 5706 5701 5696 5691 5686 5681 5676 5671 5664 5657 5651 5648 5644 5641 5638 5634 5629 5625 5621 5614 5608 5601 5594 5587
5762 5768 5769 5770 5774 5774 5769 5768 5768 5765 5760 5756 5753 5748 5741 5733 5727 5721 5715 5709 5703 5698 5694 5689 5684 5678 5674 5669 5662 5655 5649 5645 5642 5639 5636 5631 5627 5623 5618 5614 5608 5601 5594 5588
5765 5763 5758 5760 5763 5767 5767 5766 5765 5761 5756 5752 5747 5742 5736 5728 5722 5716 5711 5707 5702 5696 5691 5686 5680 5675 5671 5666 5659 5653 5648 5644 5640 5636 5633 5630 5626 5622 5618 5614 5608 5605 5598 5590
5756 5757 5756 5758 5759 5760 5760 5758 5753 5749 5746 5743 5740 5733 5727 5721 5715 5711 5708 5704 5698 5692 5687 5682 5676 5672 5669 5664 5657 5651 5647 5643 5640 5636 5632 5628 5625 5622 5618 5614 5610 5605 5601 5594
5747 5750 5750 5748 5747 5747 5747 5745 5741 5738 5737 5733 5730 5725 5721 5716 5710 5706 5702 5697 5690 5685 5681 5677 5672 5669 5666 5660 5655 5649 5645 5640 5635 5632 5629 5626 5624 5620 5617 5613 5609 5604 5599 5595
5732 5730 5731 5732 5734 5735 5735 5734 5733 5731 5729 5725 5721 5718 5713 5707 5701 5696 5693 5690 5685 5680 5677 5672 5668 5665 5661 5657 5651 5647 5643 5640 5634 5629 5627 5625 5622 5618 5615 5611 5607 5603 5599 5594
5728 5727 5726 5724 5724 5723 5723 5724 5723 5720 5717 5716 5714 5708 5701 5695 5689 5686 5684 5682 5678 5673 5671 5667 5664 5659 5655 5651 5647 5642 5639 5636 5633 5629 5626 5623 5620 5616 5613 5609 5606 5602 5598 5593
5718 5716 5716 5714 5714 5712 5710 5709 5708 5708 5706 5704 5700 5695 5691 5687 5682 5679 5676 5672 5667 5663 5662 5662 5657 5653 5649 5646 5641 5637 5634 5631 5629 5626 5623 5620 5616 5614 5611 5607 5603 5600 5596 5592
5703 5703 5703 5702 5702 5700 5697 5697 5695 5693 5692 5690 5686 5682 5678 5675 5672 5669 5666 5662 5661 5659 5658 5655 5651 5647 5643 5640 5634 5632 5629 5627 5624 5623 5620 5617 5614 5611 5608 5605 5601 5598 5594 5590
5686 5686 5686 5685 5685 5685 5684 5683 5682 5679 5678 5676 5672 5669 5666 5663 5661 5659 5655 5652 5653 5651 5649 5646 5642 5639 5636 5632 5627 5626 5624 5621 5619 5617 5615 5612 5609 5607 5604 5600 5597 5594 5590 5587
5670 5670 5669 5669 5668 5668 5669 5669 5668 5666 5664 5661 5659 5657 5654 5651 5650 5648 5646 5644 5644 5639 5638 5637 5634 5629 5625 5621 5621 5619 5617 5614 5611 5610 5608 5606 5603 5600 5598 5596 5593 5590 5586 5583
5656 5655 5655 5655 5654 5654 5655 5655 5654 5652 5649 5648 5646 5643 5642 5640 5638 5635 5633 5635 5633 5627 5625 5625 5621 5617 5613 5612 5612 5610 5609 5607 5605 5603 5601 5599 5596 5594 5591 5589 5587 5584 5582 5578
5643 5643 5642 5643 5643 5641 5640 5641 5641 5640 5639 5638 5637 5635 5632 5629 5628 5628 5626 5621 5618 5615 5615 5613 5609 5606 5602 5603 5603 5602 5600 5599 5597 5595 5594 5592 5589 5588 5585 5582 5581 5579 5577 5574
5632 5631 5631 5630 5629 5630 5630 5630 5629 5629 5628 5627 5625 5623 5621 5618 5614 5613 5611 5609 5606 5603 5604 5603 5599 5595 5594 5595 5595 5593 5592 5590 5588 5586 5585 5583 5581 5580 5578 5575 5574 5573 5570 5568
5621 5620 5620 5618 5617 5616 5618 5618 5617 5616 5613 5611 5610 5609 5606 5604 5602 5600 5598 5597 5595 5592 5592 5591 5590 5586 5586 5585 5584 5582 5581 5579 5577 5575 5575 5574 5572 5571 5569 5568 5566 5565 5563 5562
5610 5611 5609 5609 5610 5610 5609 5606 5603 5602 5600 5597 5594 5592 5590 5589 5587 5586 5584 5582 5581 5580 5579 5579 5577 5576 5575 5573 5571 5568 5567 5566 5565 5564 5564 5562 5561 5560 5559 5558 5558 5557 5555 5554